MDT,Max TemperatureF,Mean TemperatureF,Min TemperatureF,Max Dew PointF,MeanDew PointF,Min DewpointF,Max Humidity, Mean Humidity, Min Humidity, Max Sea Level PressureIn, Mean Sea Level PressureIn, Min Sea Level PressureIn, Max VisibilityMiles, Mean VisibilityMiles, Min VisibilityMiles, Max Wind SpeedMPH, Mean Wind SpeedMPH, Max Gust SpeedMPH,PrecipitationIn, CloudCover, Events, WindDirDegrees
2010-10-1,78,54,30,28,24,14,75,40,11,30.50,30.42,30.35,10,10,10,21,3,28,0.00,0,,280
2010-10-2,75,52,30,34,24,19,69,40,13,30.53,30.44,30.30,10,10,10,12,3,,0.00,0,,287
2010-10-3,73,52,30,30,24,19,75,43,15,30.46,30.38,30.23,10,10,10,9,2,,0.00,0,,248
2010-10-4,68,54,41,36,30,27,65,44,24,30.37,30.31,30.22,10,10,10,13,3,20,0.00,4,,235
2010-10-5,66,49,32,43,33,27,81,57,30,30.42,30.35,30.30,10,10,9,17,4,38,0.01,3,,360
2010-10-6,64,56,48,45,40,37,76,60,37,30.51,30.45,30.35,10,10,6,16,4,21,0.01,6,Thunderstorm,18
2010-10-7,69,54,39,45,36,28,87,59,23,30.49,30.41,30.26,10,10,10,20,9,30,0.00,4,,24
2010-10-8,53,46,39,39,32,23,87,59,30,30.34,30.30,30.27,10,10,7,17,9,25,0.18,3,,311
2010-10-9,53,40,26,30,26,21,93,61,30,30.43,30.37,30.30,10,10,10,14,3,20,0.00,3,,325
2010-10-10,59,44,30,32,28,25,86,58,27,30.37,30.30,30.19,10,10,10,14,2,17,0.00,6,,354
2010-10-11,62,44,26,30,26,21,86,59,25,30.31,30.25,30.19,10,10,10,14,2,20,0.00,0,,291
2010-10-12,60,44,28,37,29,25,86,62,33,30.46,30.39,30.32,10,10,10,9,3,23,0.05,2,Thunderstorm,296
2010-10-13,62,44,26,30,25,19,86,58,20,30.61,30.53,30.46,10,10,10,16,2,21,0.00,0,,245
2010-10-14,66,44,23,28,23,18,80,52,17,30.64,30.55,30.41,10,10,10,10,2,16,0.00,0,,219
2010-10-15,66,44,23,27,21,18,80,50,17,30.51,30.42,30.27,10,10,10,10,2,17,0.00,0,,228
2010-10-16,66,45,24,25,22,18,80,49,18,30.45,30.37,30.25,10,10,10,8,1,,0.00,0,,322
2010-10-17,64,44,24,28,24,19,80,46,22,30.37,30.28,30.18,10,10,10,14,2,20,0.00,2,,298
2010-10-18,55,42,30,39,29,21,80,63,41,30.29,30.23,30.16,10,10,10,21,2,26,0.02,5,,27
2010-10-19,59,49,39,37,34,27,93,65,29,30.31,30.26,30.22,10,10,10,7,1,,0.01,4,,208
2010-10-20,64,44,24,30,24,12,93,59,13,30.40,30.32,30.18,10,10,10,7,2,,0.00,0,,75
2010-10-21,53,42,30,39,28,21,81,62,47,30.25,30.17,30.04,10,10,10,13,5,18,0.00,5,,24
2010-10-22,48,42,37,37,35,32,93,79,57,30.06,29.98,29.90,10,10,10,16,3,21,0.00,8,,236
2010-10-23,51,44,37,36,34,30,87,72,44,30.08,29.99,29.93,10,10,10,16,9,26,0.01,8,,248
2010-10-24,51,42,33,36,33,30,87,74,50,30.15,30.08,29.98,10,10,5,15,7,21,0.03,7,,277
2010-10-25,48,37,26,37,31,21,93,80,62,29.86,29.67,29.50,10,8,0,26,7,39,0.17,8,,285
2010-10-26,35,27,19,25,16,12,86,64,38,29.86,29.84,29.82,10,10,4,20,9,26,0.00,4,,272
2010-10-27,35,26,17,19,14,9,80,62,33,30.56,30.26,29.95,10,10,10,16,3,21,0.00,3,,280
2010-10-28,44,28,12,23,13,7,85,59,31,30.71,30.61,30.52,10,10,10,7,3,,0.00,0,,76
2010-10-29,51,35,19,28,20,12,86,63,34,30.57,30.48,30.35,10,10,10,7,1,,0.00,0,,38
2010-10-30,60,40,21,28,23,18,93,65,25,30.36,30.24,29.99,10,10,10,16,1,21,0.00,0,,323
2010-10-31,53,40,26,34,25,18,81,60,24,30.29,30.21,30.16,10,10,9,17,3,23,0.00,2,,246